Flag for Australia Weather past 2 weeks in Rockhampton, Queensland, Australia

Now
52 °F

Clear.


Feels Like: 52 °F
Forecast: 53 / 79 °F
Wind: No wind

Location: Rockhampton Airport

Current Time: Apr 27, 2015 at 5:32:08 AM

Latest Report: Apr 27, 2015 at 5:00 AM


Visibility: N/A

Pressure: 30.04 "Hg

Humidity: 67%

Dew point: 41 °F

Location of RockhamptonLocation

Historic Weather in Rockhampton — Graph

°F

Rockhampton temperature yesterday

Maximum temperature yesterday: 82 °F (at 2:00 PM)
Minimum temperature yesterday: 59 °F (at 5:00 AM)
Average temperature yesterday: 71 °F

Past Weeks' High & Low Weather Summary

 TemperatureHumidityPressure
High90 °F (Apr 25, 3:00 PM)100% (Apr 18, 3:00 AM)30.21 "Hg (Apr 18, 3:00 AM)
Low50 °F (Apr 22, 4:30 AM)12% (Apr 26, 2:00 PM)29.74 "Hg (Apr 24, 3:00 PM)
Average72 °F65%30.00 "Hg
* Reported Apr 12 4:00 AM — Apr 27 4:00 AM, Rockhampton, Weather by CustomWeather, © 2015

Note: Actual official high and low records may vary slightly from our data, if they occured in-between our weather recording intervals... More about our weather records

Advertising

Rockhampton weather history for previous 24 hours

 ConditionsComfort  
Time TempWeatherWind HumidityBarometerVisibility
4:00 AM
Mon, Apr 27
52 °FClear.No wind67%30.04 "HgN/A
3:30 AM55 °FClear.No wind59%30.04 "HgN/A
3:00 AM54 °FClear.No wind67%30.04 "HgN/A
2:30 AM57 °FClear.3 mph55%30.04 "HgN/A
2:00 AM59 °FClear.6 mph48%30.04 "HgN/A
1:30 AM59 °FClear.5 mph45%30.04 "HgN/A
1:00 AM59 °FClear.8 mph48%30.04 "HgN/A
12:30 AM61 °FClear.6 mph48%30.04 "HgN/A
12:00 AM63 °FClear.6 mph39%30.04 "HgN/A
11:30 PM
Sun, Apr 26
63 °FClear.5 mph39%30.04 "HgN/A
11:00 PM63 °FClear.6 mph42%30.04 "HgN/A
10:30 PM64 °FClear.7 mph37%30.04 "Hg10 mi
10:00 PM66 °FClear.8 mph35%30.04 "Hg10 mi
9:30 PM64 °FClear.8 mph40%30.04 "Hg10 mi
9:00 PM64 °FClear.7 mph40%30.04 "Hg10 mi
8:30 PM66 °FClear.5 mph35%30.01 "Hg10 mi
8:00 PM68 °FClear.6 mph35%30.01 "Hg10 mi
7:30 PM70 °FClear.5 mph31%29.98 "Hg10 mi
7:00 PM72 °FClear.7 mph27%29.98 "Hg10 mi
6:30 PM72 °FClear.6 mph29%29.95 "Hg10 mi
6:00 PM73 °FClear.6 mph23%29.95 "Hg10 mi
5:30 PM75 °FClear.9 mph19%29.92 "Hg10 mi
5:00 PM79 °FClear.13 mph16%29.92 "Hg10 mi
4:30 PM81 °FSunny.14 mph13%29.92 "Hg10 mi
4:00 PM81 °FSunny.15 mph13%29.89 "Hg10 mi
3:30 PM82 °FSunny.13 mph12%29.89 "Hg10 mi
3:00 PM82 °FSunny.10 mph14%29.89 "Hg10 mi
2:30 PM82 °FSunny.10 mph13%29.89 "Hg10 mi
2:00 PM82 °FSunny.16 mph12%29.89 "HgN/A
1:30 PM81 °FSunny.13 mph13%29.89 "HgN/A
1:00 PM81 °FSunny.14 mph14%29.89 "Hg10 mi
12:30 PM81 °FSunny.15 mph14%29.92 "Hg10 mi
12:00 PM77 °FSunny.12 mph18%29.92 "Hg10 mi
11:30 AM77 °FSunny.10 mph22%29.92 "Hg10 mi
11:00 AM75 °FSunny.13 mph22%29.95 "Hg10 mi
10:30 AM75 °FSunny.14 mph22%29.95 "Hg10 mi
10:00 AM73 °FSunny.18 mph23%29.95 "Hg10 mi
9:30 AM73 °FSunny.18 mph23%29.98 "Hg10 mi
9:00 AM72 °FSunny.15 mph25%29.98 "Hg10 mi
8:30 AM72 °FSunny.15 mph25%29.98 "Hg10 mi
8:00 AM70 °FSunny.6 mph29%29.95 "Hg10 mi
7:00 AM66 °FSunny.9 mph43%29.95 "Hg10 mi
6:30 AM63 °FSunny.9 mph49%29.92 "Hg10 mi
6:00 AM66 °FSunny.10 mph40%29.92 "Hg10 mi
5:30 AM66 °FSunny.7 mph40%29.89 "HgN/A
5:00 AM59 °FClear.1 mph77%29.89 "HgN/A
Weather by CustomWeather, © 2015

See weather overviewHow to use our weather pages